Location: Prague
(50.0830°N, 14.4670°E)
Time: 14:30:17
(UTC+02:00)

DOVE 4 - Visible Passes

Search period start: 02 April 2023 00:00
Search period end: 12 April 2023 00:00
Orbit: 586 x 791 km, 97.8° (Epoch: 02 April)

Date Brightness Start Highest point End Pass type
(mag) Time Alt. Az. Time Alt. Az. Time Alt. Az.
02 Apr ? 00:44:36 10° N 00:47:03 26° NNW 00:47:03 26° NNW visible
02 Apr ? 23:45:25 10° NNE 23:47:25 24° NNE 23:47:25 24° NNE visible
03 Apr ? 01:23:41 10° NNW 01:26:01 19° NW 01:26:01 19° NW visible
03 Apr ? 22:47:21 10° NE 22:47:47 12° NE 22:47:47 12° NE visible
04 Apr ? 00:23:54 10° N 00:26:22 30° N 00:26:22 30° N visible
04 Apr ? 02:04:07 10° NW 02:04:58 11° NW 02:04:58 11° NW visible
04 Apr ? 23:25:00 10° NNE 23:26:44 21° NE 23:26:44 21° NE visible
05 Apr ? 01:02:44 10° N 01:05:19 24° NNW 01:05:19 24° NNW visible
06 Apr ? 00:03:15 10° NNE 00:05:40 30° NNE 00:05:40 30° NNE visible
06 Apr ? 01:42:10 10° NNW 01:44:16 15° NW 01:44:16 15° NW visible
06 Apr ? 23:04:43 10° NE 23:06:01 16° NE 23:06:01 16° NE visible
07 Apr ? 00:41:53 10° N 00:44:35 29° NNW 00:44:35 29° NNW visible
07 Apr ? 23:42:41 10° NNE 23:44:56 27° NNE 23:44:56 27° NNE visible
08 Apr ? 01:20:57 10° NNW 01:23:31 19° NW 01:23:31 19° NW visible
08 Apr ? 22:44:42 10° NE 22:45:15 12° NE 22:45:15 12° NE visible
09 Apr ? 00:21:07 10° N 00:23:51 34° N 00:23:51 34° N visible
09 Apr ? 02:01:34 10° NW 02:02:10 10° NW 02:02:26 10° NW visible
09 Apr ? 23:22:13 10° NNE 23:24:09 22° NE 23:24:09 22° NE visible
10 Apr ? 00:59:56 10° N 01:02:45 26° NW 01:02:45 26° NW visible
11 Apr ? 00:00:25 10° NNE 00:03:04 35° NNE 00:03:04 35° NNE visible
11 Apr ? 01:39:20 10° NNW 01:41:39 14° NW 01:41:39 14° NW visible
11 Apr ? 23:01:54 10° NE 23:03:22 17° NE 23:03:22 17° NE visible
